N0MR Weather Reports


Display with metric or nautical units.
time (UTC)temp
F
wind
direction
speed
MPH
gust
MPH
rain 1hr
in
rain 24hr
in
rain mn
in
humidity
%
barometer
mb
20260506034141 33 313 4.0 7.0 0.00 0.00 0.00 64 1012.7
20260506033140 33 313 4.0 7.0 0.00 0.00 0.00 64 1012.7
20260506032141 34 314 6.0 9.0 0.00 0.00 0.00 63 1012.6
20260506031141 34 314 6.0 9.0 0.00 0.00 0.00 63 1012.6
20260506030140 34 273 1.0 9.0 0.00 0.00 0.00 63 1012.6
20260506025141 34 273 1.0 9.0 0.00 0.00 0.00 63 1012.6
20260506024140 34 293 2.0 8.0 0.00 0.00 0.00 63 1012.4
20260506023141 34 293 2.0 8.0 0.00 0.00 0.00 63 1012.4
20260506022140 34 288 4.0 6.0 0.00 0.00 0.00 62 1012.3
20260506021142 34 288 4.0 6.0 0.00 0.00 0.00 62 1012.3
20260506020142 34 306 0.0 6.0 0.00 0.00 0.00 62 1012.0
20260506015142 34 306 0.0 6.0 0.00 0.00 0.00 62 1012.0
20260506014142 35 246 1.0 6.0 0.00 0.00 0.00 60 1011.8
20260506013142 35 246 1.0 6.0 0.00 0.00 0.00 60 1011.8
20260506012141 35 319 1.0 8.0 0.00 0.00 0.00 60 1011.5
20260506011141 36 306 1.0 9.0 0.00 0.00 0.00 59 1011.3
20260506010142 36 306 1.0 9.0 0.00 0.00 0.00 59 1011.3
20260506005142 36 16 2.0 5.0 0.00 0.00 0.00 58 1011.3
20260506004140 36 16 2.0 5.0 0.00 0.00 0.00 58 1011.3
20260506003141 37 322 1.0 9.0 0.00 0.00 0.00 56 1011.2
20260506002141 37 322 1.0 9.0 0.00 0.00 0.00 56 1011.2
20260506001141 37 287 5.0 9.0 0.00 0.00 0.00 54 1010.8
20260506000142 37 287 5.0 9.0 0.00 0.00 0.00 54 1010.8
20260505235142 37 274 2.0 8.0 0.00 0.00 0.00 55 1010.8
20260505234142 37 274 2.0 8.0 0.00 0.00 0.00 55 1010.8
20260505233141 38 292 2.0 9.0 0.00 0.00 0.00 54 1010.7
20260505232141 38 292 2.0 9.0 0.00 0.00 0.00 54 1010.7
20260505231141 38 196 1.0 9.0 0.00 0.00 0.00 54 1010.7
20260505230142 38 196 1.0 9.0 0.00 0.00 0.00 54 1010.7
20260505225141 38 241 1.0 9.0 0.00 0.00 0.00 53 1010.5
20260505224142 38 241 1.0 9.0 0.00 0.00 0.00 53 1010.5
20260505221142 38 279 5.0 10.0 0.00 0.00 0.00 55 1010.4
20260505220143 38 279 5.0 10.0 0.00 0.00 0.00 55 1010.4
20260505215141 38 300 2.0 13.0 0.00 0.00 0.00 55 1010.2
20260505214143 38 189 4.0 9.0 0.00 0.00 0.00 54 1010.1
20260505213143 38 189 4.0 9.0 0.00 0.00 0.00 54 1010.1
20260505212142 38 275 1.0 13.0 0.00 0.00 0.00 54 1009.9
20260505211143 38 275 1.0 13.0 0.00 0.00 0.00 54 1009.9
20260505210143 38 320 1.0 10.0 0.00 0.00 0.00 54 1009.9
20260505205142 38 320 1.0 10.0 0.00 0.00 0.00 54 1009.9
20260505204147 38 268 1.0 12.0 0.00 0.00 0.00 53 1009.8
20260505203142 38 268 1.0 12.0 0.00 0.00 0.00 53 1009.8
20260505202143 38 328 3.0 10.0 0.00 0.00 0.00 53 1009.8
20260505201142 38 328 3.0 10.0 0.00 0.00 0.00 53 1009.8
20260505200143 38 217 6.0 9.0 0.00 0.00 0.00 53 1009.8
20260505195143 38 217 6.0 9.0 0.00 0.00 0.00 53 1009.8
20260505194143 37 44 2.0 12.0 0.00 0.00 0.00 53 1009.7
20260505193144 37 44 2.0 12.0 0.00 0.00 0.00 53 1009.7
20260505192144 37 18 6.0 11.0 0.00 0.00 0.00 52 1009.6
20260505191144 37 18 6.0 11.0 0.00 0.00 0.00 52 1009.6
20260505190143 37 5 7.0 12.0 0.00 0.00 0.00 52 1009.6
20260505185143 37 5 7.0 12.0 0.00 0.00 0.00 52 1009.6
20260505184144 36 178 5.0 9.0 0.00 0.00 0.00 54 1009.4
20260505183143 36 311 11.0 10.0 0.00 0.00 0.00 53 1009.3
20260505182143 36 311 11.0 10.0 0.00 0.00 0.00 53 1009.3
20260505181144 35 192 4.0 11.0 0.00 0.00 0.00 58 1009.1
20260505180144 35 192 4.0 11.0 0.00 0.00 0.00 58 1009.1
20260505174144 34 13 0.0 13.0 0.00 0.00 0.00 61 1009.0
20260505173145 34 230 6.0 10.0 0.00 0.00 0.00 64 1008.7
20260505172145 34 230 6.0 10.0 0.00 0.00 0.00 64 1008.7
20260505171145 33 326 8.0 14.0 0.00 0.00 0.00 65 1008.7
20260505170144 33 326 8.0 14.0 0.00 0.00 0.00 65 1008.7
20260505164145 32 280 4.0 10.0 0.00 0.00 0.00 68 1008.6
20260505163143 31 129 1.0 13.0 0.00 0.00 0.00 69 1008.3
20260505162144 31 129 1.0 13.0 0.00 0.00 0.00 69 1008.3
20260505161144 31 58 1.0 11.0 0.00 0.00 0.00 69 1008.0
20260505160145 31 58 1.0 11.0 0.00 0.00 0.00 69 1008.0
20260505153144 30 210 8.0 18.0 0.00 0.00 0.00 67 1007.9
20260505152144 30 331 3.0 12.0 0.00 0.00 0.00 67 1007.5
20260505151146 30 331 3.0 12.0 0.00 0.00 0.00 67 1007.5
20260505150144 30 35 2.0 12.0 0.00 0.00 0.00 67 1007.2
20260505140146 29 338 4.0 14.0 0.00 0.00 0.00 63 1006.4
20260505130145 31 243 1.0 14.0 0.00 0.00 0.00 66 1005.8
20260505124145 30 261 4.0 10.0 0.00 0.00 0.00 70 1005.7
20260505123146 30 261 4.0 10.0 0.00 0.00 0.00 70 1005.7
20260505122145 29 11 5.0 9.0 0.00 0.01 0.00 72 1005.5
20260505121145 29 328 1.0 8.0 0.00 0.02 0.00 73 1005.4
20260505120146 29 328 1.0 8.0 0.00 0.02 0.00 73 1005.4
20260505115146 29 299 2.0 14.0 0.00 0.02 0.00 73 1005.1
20260505114146 29 299 2.0 14.0 0.00 0.02 0.00 73 1005.1
20260505113146 29 61 2.0 11.0 0.00 0.02 0.00 74 1004.9
20260505112145 29 61 2.0 11.0 0.00 0.02 0.00 74 1004.9
20260505111146 29 312 8.0 10.0 0.00 0.02 0.00 75 1004.6
20260505110146 29 312 8.0 10.0 0.00 0.02 0.00 75 1004.6
20260505102146 29 355 9.0 13.0 0.00 0.02 0.00 79 1004.2
20260505101146 29 215 6.0 16.0 0.00 0.02 0.00 79 1004.0
20260505100146 29 215 6.0 16.0 0.00 0.02 0.00 79 1004.0
20260505095146 30 307 2.0 12.0 0.00 0.02 0.00 79 1003.8
20260505094147 30 307 2.0 12.0 0.00 0.02 0.00 79 1003.8
20260505091146 31 192 2.0 13.0 0.00 0.02 0.00 80 1003.4
20260505090146 31 223 6.0 8.0 0.00 0.02 0.00 81 1003.1
20260505085146 31 223 6.0 8.0 0.00 0.02 0.00 81 1003.1
20260505084147 31 266 2.0 10.0 0.00 0.02 0.00 83 1003.1
20260505083146 31 266 2.0 10.0 0.00 0.02 0.00 83 1003.1
20260505082146 30 106 5.0 7.0 0.00 0.02 0.00 83 1003.0
20260505081146 30 106 5.0 7.0 0.00 0.02 0.00 83 1003.0
20260505080147 31 348 2.0 8.0 0.00 0.02 0.00 81 1002.9
20260505075147 31 348 2.0 8.0 0.00 0.02 0.00 81 1002.9
20260505074147 31 311 1.0 9.0 0.00 0.02 0.00 80 1002.9
20260505073147 31 311 1.0 9.0 0.00 0.02 0.00 80 1002.9
20260505072147 31 355 1.0 8.0 0.00 0.02 0.00 79 1002.7
20260505071147 31 355 1.0 8.0 0.00 0.02 0.00 79 1002.7
20260505070148 31 328 1.0 8.0 0.00 0.02 0.00 79 1002.7
20260505064148 32 281 1.0 9.0 0.00 0.02 0.00 80 1002.7
20260505063147 32 281 1.0 9.0 0.00 0.02 0.00 80 1002.7
20260505062148 32 300 4.0 6.0 0.00 0.02 0.00 79 1002.7
20260505061148 32 300 4.0 6.0 0.00 0.02 0.00 79 1002.7
20260505060147 32 306 2.0 7.0 0.00 0.02 0.00 79 1002.5
20260505055149 33 306 1.0 5.0 0.00 0.02 0.00 78 1002.4
20260505054148 33 306 1.0 5.0 0.00 0.02 0.00 78 1002.4
20260505053147 33 342 1.0 7.0 0.00 0.02 0.00 78 1002.3
20260505052147 33 342 1.0 7.0 0.00 0.02 0.00 78 1002.3
20260505051148 34 294 1.0 7.0 0.00 0.02 0.02 79 1002.1
20260505050148 34 294 1.0 7.0 0.00 0.02 0.02 79 1002.1
20260505041149 35 290 5.0 7.0 0.00 0.02 0.02 76 1001.7
20260505040149 35 290 5.0 7.0 0.00 0.02 0.02 76 1001.7